Central Point, OR

4:55 PM PST on February 26, 2017 (GMT -0800)
Rogue Valley International-Medford

Weather History for KMFR - June, 2013

Change the Weather History Date:

Sunday, June 23, 2013

  Actual Average Record
Temperature  
Mean Temperature 70 °F 69 °F  
Max Temperature 80 °F 84 °F 104 °F (1926)
Min Temperature 60 °F 53 °F 39 °F (1920)
Degree Days  
Heating Degree Days 0 1  
Month to date heating degree days 29 48  
Since 1 June heating degree days 29 48  
Since 1 July heating degree days 4031 4245  
Cooling Degree Days 5 5  
Month to date cooling degree days 85 68  
Year to date cooling degree days 120 106  
Since 1 June cooling degree days 85 68  
Growing Degree Days 20 (Base 50)    
Moisture  
Dew Point 48 °F    
Average Humidity 51    
Maximum Humidity 64    
Minimum Humidity 37    
Precipitation  
Precipitation T in 0.01 in 0.61 in (1911)
Month to date precipitation 0.13 0.53  
Year to date precipitation 3.87 9.37  
Snow  
Snow 0.00 in 0.00 in - ()
Month to date snowfall 0.0 0.0  
Since 1 July snowfall 1.7 4.1  
Snow Depth 0.00 in    
Sea Level Pressure  
Sea Level Pressure 29.72 in    
Wind  
Wind Speed 7 mph (NW)    
Max Wind Speed 21 mph    
Max Gust Speed 28 mph    
Visibility 10 miles    
Events Rain    
T = Trace of Precipitation, MM = Missing Value Source: NWS Daily Summary

Daily Weather History Graph

Daily Weather History Graph

Search for Another Location

Airport or City:

Trip Planner

Search our weather history database for the weather conditions in past years. The results will help you decide how hot, cold, wet, or windy it might be!

Date:

Astronomy

Jun. 23, 2013 Rise Set
Actual Time 5:35 AM PDT 8:52 PM PDT
Civil Twilight 5:00 AM PDT 9:27 PM PDT
Nautical Twilight 4:15 AM PDT 10:12 PM PDT
Astronomical Twilight 3:20 AM PDT 11:06 PM PDT
Moon 9:07 PM PDT (6/23) 6:00 AM PDT (6/23)
Length of Visible Light 16h 26m
Length of Day
15h 16m
Full, 100% of the Moon is Illuminated
Jun 23
Full
Jun 29
Last Quarter
Jul 8
New
Jul 15
First Quarter
Jul 22
Full

Hourly Weather History & Observations

Time (PDT) Temp. Dew Point Humidity Pressure Visibility Wind Dir Wind Speed Gust Speed Precip Events Conditions
12:53 AM 69.1 °F 42.1 °F 38% 29.83 in 10.0 mi WNW 5.8 mph - N/A   Clear
1:53 AM 66.9 °F 43.0 °F 42% 29.81 in 10.0 mi WNW 4.6 mph - N/A   Mostly Cloudy
2:53 AM 66.9 °F 43.0 °F 42% 29.80 in 10.0 mi NW 3.5 mph - N/A   Overcast
3:53 AM 64.9 °F 44.1 °F 47% 29.78 in 10.0 mi WNW 4.6 mph - N/A   Overcast
4:53 AM 64.9 °F 46.0 °F 50% 29.78 in 10.0 mi Calm Calm - 0.00 in Rain Light Rain
5:53 AM 64.0 °F 46.0 °F 52% 29.77 in 10.0 mi WNW 3.5 mph - N/A   Overcast
6:53 AM 64.0 °F 46.0 °F 52% 29.76 in 10.0 mi NW 3.5 mph - N/A   Partly Cloudy
7:53 AM 64.9 °F 46.9 °F 52% 29.76 in 10.0 mi West 3.5 mph - N/A   Mostly Cloudy
8:53 AM 66.0 °F 46.9 °F 50% 29.77 in 10.0 mi NW 4.6 mph - N/A   Overcast
9:53 AM 66.9 °F 48.9 °F 52% 29.76 in 10.0 mi Calm Calm - 0.00 in Rain Light Rain
10:53 AM 71.1 °F 48.9 °F 45% 29.73 in 10.0 mi NNE 6.9 mph - 0.00 in   Mostly Cloudy
11:53 AM 73.9 °F 50.0 °F 43% 29.70 in 10.0 mi ENE 5.8 mph - N/A   Overcast
12:53 PM 75.0 °F 50.0 °F 41% 29.68 in 10.0 mi Variable 4.6 mph - N/A   Overcast
1:53 PM 75.9 °F 48.0 °F 37% 29.66 in 10.0 mi West 10.4 mph - N/A   Mostly Cloudy
2:53 PM 77.0 °F 50.0 °F 39% 29.65 in 10.0 mi NW 10.4 mph 17.3 mph N/A   Partly Cloudy
3:53 PM 78.1 °F 51.1 °F 39% 29.63 in 10.0 mi NW 10.4 mph - N/A   Scattered Clouds
4:53 PM 73.9 °F 53.1 °F 48% 29.64 in 10.0 mi NW 16.1 mph 25.3 mph N/A   Overcast
5:53 PM 75.0 °F 53.1 °F 46% 29.64 in 10.0 mi NW 15.0 mph 25.3 mph N/A   Mostly Cloudy
6:53 PM 73.0 °F 51.1 °F 46% 29.66 in 10.0 mi NW 16.1 mph - N/A   Scattered Clouds
7:53 PM 70.0 °F 48.9 °F 47% 29.68 in 10.0 mi NW 12.7 mph 19.6 mph N/A   Scattered Clouds
8:53 PM 66.0 °F 48.9 °F 54% 29.69 in 10.0 mi NNW 11.5 mph - N/A   Scattered Clouds
9:53 PM 64.0 °F 48.9 °F 58% 29.71 in 10.0 mi NW 11.5 mph - N/A   Clear
10:53 PM 62.1 °F 48.9 °F 62% 29.72 in 10.0 mi NNE 4.6 mph - N/A   Clear
11:53 PM 61.0 °F 48.9 °F 64% 29.71 in 10.0 mi North 5.8 mph - N/A   Clear